Weather History for Effingham, IL

Change the Weather History Date:

Sunday, February 2, 2014

  Actual Average (KMTO) Record (KMTO)
Temperature  
Mean Temperature 24 °F 28 °F  
Max Temperature 31 °F 36 °F 59 °F (1953)
Min Temperature 17 °F 21 °F -9 °F (1951)
Degree Days  
Heating Degree Days 40 37  
Month to date heating degree days 74  
Since 1 July heating degree days 3350  
Cooling Degree Days 0 0  
Month to date cooling degree days 0  
Year to date cooling degree days 0  
Moisture  
Dew Point 19 °F    
Average Humidity 79    
Maximum Humidity 89    
Minimum Humidity 67    
Precipitation  
Precipitation 0.00 in 0.07 in 0.61 in (1983)
Month to date precipitation 0.13  
Year to date precipitation 2.34  
Sea Level Pressure  
Sea Level Pressure 30.22 in    
Wind  
Wind Speed 10 mph (NNW)    
Max Wind Speed 15 mph    
Max Gust Speed 20 mph    
Visibility 9 miles    
Events Snow    
T = Trace of Precipitation, MM = Missing Value Source: NWS Daily Summary

Daily Weather History Graph

Daily Weather History Graph

Search for Another Location

Airport:

Trip Planner

Search our weather history database for the weather conditions in past years. The results will help you decide how hot, cold, wet, or windy it might be!

Date:

Astronomy

Feb. 02, 2014 Rise Set
Actual Time 6:59 AM CST 5:16 PM CST
Civil Twilight 6:31 AM CST 5:44 PM CST
Nautical Twilight 5:59 AM CST 6:16 PM CST
Astronomical Twilight 5:28 AM CST 6:47 PM CST
Moon 8:28 AM CST (2/2) 8:58 PM CST (2/2)
Length of Visible Light 11h 12m
Length of Day
10h 16m
Waxing Crescent, 11% of the Moon is Illuminated
Feb 2
Waxing Crescent
Feb 6
First Quarter
Feb 14
Full
Feb 22
Last Quarter
Mar 1
New

Hourly Weather History & Observations

Time (CST) Temp. Windchill Dew Point Humidity Pressure Visibility Wind Dir Wind Speed Gust Speed Precip Events Conditions
12:15 AM 31.6 °F 23.7 °F 28.4 °F 88% 30.05 in 3.0 mi North 9.2 mph - N/A Snow Light Snow
12:35 AM 31.5 °F 24.2 °F 28.4 °F 88% 30.05 in 4.0 mi NNW 8.1 mph - N/A Snow Light Snow
12:55 AM 31.3 °F 23.9 °F 28.2 °F 88% 30.05 in 4.0 mi North 8.1 mph - N/A Snow Light Snow
1:15 AM 31.1 °F 21.9 °F 28.0 °F 88% 30.08 in 4.0 mi NNW 11.5 mph - N/A Snow Light Snow
1:35 AM 30.7 °F 22.0 °F 27.7 °F 88% 30.08 in 1.5 mi NNW 10.4 mph - N/A Snow Light Snow
1:55 AM 30.0 °F 19.5 °F 27.1 °F 89% 30.09 in 2.5 mi NNW 13.8 mph 17.3 mph N/A Snow Light Snow
2:15 AM 29.8 °F 20.3 °F 26.4 °F 87% 30.09 in 5.0 mi NNW 11.5 mph - N/A Snow Light Snow
2:35 AM 29.3 °F 19.6 °F 25.7 °F 86% 30.11 in 7.0 mi NW 11.5 mph - N/A   Overcast
2:55 AM 28.6 °F 17.7 °F 25.0 °F 86% 30.10 in 5.0 mi NNW 13.8 mph 17.3 mph N/A Snow Light Snow
3:15 AM 28.4 °F 18.5 °F 24.4 °F 85% 30.11 in 7.0 mi NNW 11.5 mph 19.6 mph N/A   Overcast
3:35 AM 28.2 °F 18.9 °F 24.4 °F 86% 30.12 in 10.0 mi NNW 10.4 mph - N/A   Overcast
3:55 AM 28.0 °F 19.3 °F 23.9 °F 84% 30.12 in 7.0 mi NNW 9.2 mph 16.1 mph N/A   Overcast
4:15 AM 28.0 °F 19.3 °F 24.4 °F 86% 30.11 in 7.0 mi North 9.2 mph - N/A   Overcast
4:35 AM 27.9 °F 19.8 °F 23.9 °F 85% 30.12 in 10.0 mi NNW 8.1 mph - N/A   Overcast
4:55 AM 27.5 °F 18.6 °F 23.7 °F 86% 30.13 in 10.0 mi NNW 9.2 mph - N/A   Overcast
5:15 AM 27.3 °F 17.7 °F 23.2 °F 84% 30.14 in 10.0 mi NNW 10.4 mph 17.3 mph N/A   Mostly Cloudy
5:35 AM 27.1 °F 18.2 °F 23.0 °F 84% 30.16 in 10.0 mi NNW 9.2 mph 17.3 mph N/A   Overcast
5:55 AM 27.0 °F 18.7 °F 22.8 °F 84% 30.16 in 10.0 mi NNW 8.1 mph - N/A   Overcast
6:15 AM 26.6 °F 16.8 °F 22.8 °F 86% 30.17 in 10.0 mi NNW 10.4 mph - N/A   Overcast
6:35 AM 26.2 °F 17.1 °F 22.1 °F 84% 30.18 in 10.0 mi NNW 9.2 mph - N/A   Overcast
6:55 AM 26.1 °F 16.2 °F 22.1 °F 85% 30.19 in 10.0 mi NW 10.4 mph - N/A   Overcast
7:15 AM 25.7 °F 16.4 °F 21.2 °F 83% 30.21 in 10.0 mi NNW 9.2 mph - N/A   Overcast
7:35 AM 25.2 °F 12.9 °F 20.7 °F 83% 30.22 in 7.0 mi NNW 15.0 mph 18.4 mph N/A   Overcast
7:55 AM 24.3 °F 13.3 °F 19.4 °F 82% 30.22 in 10.0 mi NNW 11.5 mph - N/A   Overcast
8:15 AM 23.9 °F 13.5 °F 19.4 °F 83% 30.22 in 10.0 mi NNW 10.4 mph - N/A   Overcast
8:35 AM 23.7 °F 12.6 °F 19.0 °F 82% 30.23 in 10.0 mi NNW 11.5 mph - N/A   Overcast
8:55 AM 23.5 °F 10.8 °F 18.7 °F 82% 30.25 in 10.0 mi NW 15.0 mph - N/A   Overcast
9:15 AM 23.4 °F 11.6 °F 18.3 °F 81% 30.26 in 10.0 mi NNW 12.7 mph - N/A   Overcast
9:35 AM 23.4 °F 12.2 °F 18.3 °F 81% 30.27 in 10.0 mi NNW 11.5 mph - N/A   Overcast
9:55 AM 23.0 °F 11.7 °F 18.5 °F 83% 30.28 in 7.0 mi NNW 11.5 mph - N/A   Overcast
10:15 AM 23.0 °F 13.1 °F 18.0 °F 81% 30.27 in 7.0 mi NNW 9.2 mph - N/A   Overcast
10:35 AM 23.0 °F 11.1 °F 17.8 °F 80% 30.26 in 7.0 mi NNW 12.7 mph - N/A   Overcast
10:55 AM 23.0 °F 13.9 °F 18.5 °F 83% 30.26 in 7.0 mi North 8.1 mph - N/A   Overcast
11:15 AM 23.7 °F 14.0 °F 18.9 °F 82% 30.25 in 7.0 mi NNW 9.2 mph - N/A   Overcast
11:35 AM 22.8 °F 11.5 °F 18.0 °F 82% 30.27 in 7.0 mi NW 11.5 mph - N/A   Overcast
11:55 AM 23.4 °F 16.2 °F 18.3 °F 81% 30.25 in 7.0 mi NNW 5.8 mph - N/A   Overcast
12:15 PM 23.5 °F 15.4 °F 18.3 °F 80% 30.24 in 7.0 mi NNW 6.9 mph - N/A   Overcast
12:35 PM 23.9 °F 14.2 °F 18.3 °F 79% 30.23 in 10.0 mi NNW 9.2 mph - N/A   Overcast
12:55 PM 23.7 °F 14.7 °F 17.6 °F 77% 30.25 in 10.0 mi NNW 8.1 mph - N/A   Overcast
1:15 PM 23.7 °F 11.0 °F 18.3 °F 80% 30.29 in 10.0 mi NW 15.0 mph - N/A   Overcast
1:35 PM 23.5 °F 14.5 °F 17.6 °F 78% 30.27 in 10.0 mi North 8.1 mph - N/A   Overcast
1:55 PM 23.7 °F 14.7 °F 17.8 °F 78% 30.28 in 10.0 mi NNW 8.1 mph - N/A   Overcast
2:15 PM 23.5 °F 14.5 °F 18.0 °F 79% 30.23 in 10.0 mi NNW 8.1 mph - N/A   Mostly Cloudy
2:35 PM 23.9 °F 15.0 °F 18.5 °F 80% 30.24 in 10.0 mi NNW 8.1 mph - N/A   Mostly Cloudy
2:55 PM 23.9 °F 14.2 °F 17.8 °F 77% 30.28 in 10.0 mi NNW 9.2 mph - N/A   Mostly Cloudy
3:15 PM 24.1 °F 13.7 °F 17.8 °F 77% 30.28 in 10.0 mi NNW 10.4 mph 16.1 mph N/A   Mostly Cloudy
3:35 PM 23.9 °F 13.5 °F 17.8 °F 77% 30.26 in 10.0 mi NNW 10.4 mph - N/A   Overcast
3:55 PM 23.9 °F 15.0 °F 17.4 °F 76% 30.26 in 10.0 mi NNW 8.1 mph - N/A   Overcast
4:15 PM 23.9 °F 15.0 °F 17.2 °F 76% 30.27 in 10.0 mi North 8.1 mph - N/A   Mostly Cloudy
4:35 PM 23.5 °F 13.0 °F 15.6 °F 72% 30.27 in 10.0 mi North 10.4 mph - N/A   Scattered Clouds
4:55 PM 23.5 °F 15.4 °F 15.6 °F 72% 30.26 in 10.0 mi North 6.9 mph - N/A   Clear
5:15 PM 23.0 °F 13.1 °F 14.7 °F 71% 30.25 in 10.0 mi North 9.2 mph - N/A   Clear
5:35 PM 23.0 °F 11.1 °F 14.7 °F 71% 30.25 in 10.0 mi North 12.7 mph 16.1 mph N/A   Clear
5:55 PM 22.8 °F 12.9 °F 14.9 °F 72% 30.26 in 10.0 mi North 9.2 mph - N/A   Clear
6:15 PM 22.6 °F 13.4 °F 14.5 °F 71% 30.27 in 10.0 mi North 8.1 mph - N/A   Scattered Clouds
6:35 PM 22.8 °F 14.5 °F 15.1 °F 72% 30.28 in 10.0 mi North 6.9 mph - N/A   Overcast
6:55 PM 22.6 °F 11.9 °F 14.9 °F 72% 30.27 in 10.0 mi North 10.4 mph - N/A   Overcast
7:15 PM 22.5 °F 12.4 °F 14.4 °F 71% 30.28 in 10.0 mi North 9.2 mph - N/A   Overcast
7:35 PM 22.1 °F 12.8 °F 13.1 °F 68% 30.28 in 10.0 mi North 8.1 mph - N/A   Overcast
7:55 PM 21.9 °F 10.4 °F 12.4 °F 67% 30.27 in 10.0 mi North 11.5 mph - N/A   Overcast
8:15 PM 21.6 °F 11.3 °F 13.1 °F 70% 30.26 in 10.0 mi North 9.2 mph 16.1 mph N/A   Overcast
8:35 PM 21.2 °F 10.9 °F 12.7 °F 70% 30.25 in 10.0 mi North 9.2 mph - N/A   Overcast
8:55 PM 21.0 °F 10.6 °F 12.4 °F 69% 30.28 in 10.0 mi North 9.2 mph - N/A   Overcast
9:15 PM 21.0 °F 9.9 °F 12.6 °F 70% 30.27 in 10.0 mi North 10.4 mph - N/A   Overcast
9:35 PM 20.8 °F 10.4 °F 11.7 °F 68% 30.29 in 10.0 mi North 9.2 mph - N/A   Overcast
9:55 PM 20.3 °F 7.7 °F 11.7 °F 69% 30.26 in 10.0 mi North 12.7 mph - N/A   Overcast
10:15 PM 19.9 °F 10.1 °F 11.1 °F 69% 30.27 in 10.0 mi North 8.1 mph - N/A   Overcast
10:35 PM 19.4 °F 7.9 °F 10.9 °F 70% 30.26 in 10.0 mi North 10.4 mph 17.3 mph N/A   Overcast
10:55 PM 19.2 °F 6.4 °F 11.1 °F 71% 30.26 in 10.0 mi North 12.7 mph - N/A   Overcast
11:15 PM 18.7 °F 6.3 °F 10.8 °F 71% 30.26 in 10.0 mi North 11.5 mph - N/A   Overcast
11:35 PM 18.5 °F 8.4 °F 10.4 °F 71% 30.28 in 10.0 mi North 8.1 mph - N/A   Overcast
11:55 PM 17.8 °F 6.6 °F 9.7 °F 71% 30.28 in 10.0 mi North 9.2 mph - N/A   Mostly Cloudy